This demonstration page uses our WeatherBlox Daily Observations layout. Learn more.

Left ArrowRight Arrow

Hourly Observations for September 24, 2022

Temp ( °F °C ) Dew Point ( °F °C ) Humidity (%) Winds ( mph kmh ) Pressure ( in mb ) Visibility ( mi km ) Precip ( " mm )
12:55 am 00:55 Cloudy 58 14.3 55 13 92 92 S 10 17 29.96 1015 8 13 0.00 0.00
1:55 am 01:55 Cloudy with Mist and Fog 57 14.1 55 13 93 93 S 6 9 29.96 1015 5 8 0.00 0.00
2:55 am 02:55 Cloudy with Mist and Fog 57 13.9 56 13.1 95 95 S 7 11 29.96 1015 3 5 0.00 0.00
3:10 am 03:10 Cloudy with Mist and Fog 57 14 55 13 94 94 S 6 9 29.95 1014 3 4 0.00 0.00
3:55 am 03:55 Mostly Cloudy with Mist and Fog 56 13.5 55 12.9 96 96 S 3 6 29.95 1014 3 5 0.00 0.00
4:11 am 04:11 Mostly Cloudy with Mist and Fog 55 13 55 13 100 100 S 3 6 29.95 1014 1 2 0.00 0.00
4:26 am 04:26 Mostly Clear with Mist and Fog 55 13 55 13 100 100 S 5 7 29.94 1014 1 1 0.00 0.00
4:36 am 04:36 Mostly Clear with Fog 55 13 55 13 100 100 S 5 7 29.95 1014 0 1 0.00 0.00
4:51 am 04:51 Mostly Clear with Fog 55 13 55 13 100 100 S 3 6 29.95 1014 1 1 0.00 0.00
4:55 am 04:55 Mostly Clear with Mist and Fog 55 13 55 12.7 98 98 S 3 6 29.95 1014 1 2 0.00 0.00
5:08 am 05:08 Mostly Clear with Mist and Fog 55 13 54 12 94 94 S 3 6 29.95 1014 1 1 0.00 0.00
5:11 am 05:11 Mostly Clear with Mist and Fog 55 13 54 12 94 94 SSE 3 6 29.95 1014 1 2 0.00 0.00
5:25 am 05:25 Mostly Cloudy with Mist and Fog 54 12 54 12 100 100 S 5 7 29.95 1014 1 1 0.00 0.00
5:38 am 05:38 Partly Cloudy with Mist and Fog 54 12 54 12 100 100 Calm 29.95 1014 2 3 0.00 0.00
5:55 am 05:55 Mostly Clear 53 11.8 53 11.5 98 98 S 3 6 29.95 1014 7 11 0.00 0.00
6:55 am 06:55 Clear 53 11.4 52 11.2 99 99 Calm 29.96 1015 9 14 0.00 0.00
7:55 am 07:55 Sunny 53 11.4 53 11.4 100 100 Calm 29.97 1015 9 14 0.00 0.00
8:55 am 08:55 Sunny 56 13.6 54 12.3 92 92 Calm 29.97 1015 10 16 0.00 0.00
9:55 am 09:55 Sunny 63 17.2 55 12.7 75 75 Calm 29.98 1015 10 16 0.00 0.00
10:55 am 10:55 Sunny 73 22.9 52 11.3 48 48 W 7 11 29.96 1015 10 16 0.00 0.00
11:55 am 11:55 Sunny 79 26 49 9.3 35 35 W 13 20 29.95 1014 10 16 0.00 0.00
12:55 pm 12:55 Sunny 84 28.8 44 6.8 25 25 W 17 28 29.93 1014 10 16 0.00 0.00
1:55 pm 13:55 Sunny 85 29.7 42 5.7 22 22 WNW 13 20 29.91 1013 10 16 0.00 0.00
2:55 pm 14:55 Sunny 87 30.5 41 5 20 20 NW 18 30 29.89 1012 10 16 0.00 0.00
3:55 pm 15:55 Sunny 87 30.7 40 4.4 19 19 NNW 17 28 29.88 1012 10 16 0.00 0.00
4:38 pm 16:38 Sunny 88 31 41 5 19 19 W 14 22 29.88 1012 10 16 0.00 0.00
4:55 pm 16:55 Partly Cloudy 87 30.7 40 4.4 19 19 WNW 15 24 29.87 1012 10 16 0.00 0.00
5:55 pm 17:55 Mostly Cloudy 85 29.5 41 4.9 21 21 WNW 8 13 29.88 1012 10 16 0.00 0.00
6:55 pm 18:55 Partly Cloudy 81 27.1 45 7 28 28 N 7 11 29.90 1013 10 16 0.00 0.00
7:55 pm 19:55 Cloudy 76 24.6 47 8.1 35 35 N 7 11 29.92 1013 10 16 0.00 0.00
8:55 pm 20:55 Cloudy 74 23.4 47 8.3 38 38 N 8 13 29.97 1015 10 16 0.00 0.00
9:55 pm 21:55 Cloudy 72 22.3 46 8 40 40 N 9 15 29.99 1016 10 16 0.00 0.00
10:55 pm 22:55 Mostly Cloudy 69 20.7 48 8.7 46 46 NNW 5 7 29.99 1016 10 16 0.00 0.00
11:55 pm 23:55 Mostly Clear 66 18.8 48 9 53 53 Calm 30.00 1016 10 16 0.00 0.00

Powered by AerisWeather